Theta_e
353 353 353 351 350 351 350 349 349 350 350 349 351 350 348 345 345 344 342 344 343 345 345 343 346 347 347 348 348 349 348 348 348 346 345 341 338 338 339 339 340 340 340 340 340 340 340 340 339 338 337 336 336 336 336 337 336 336 335 335 335 334 333 333 332 332 332 333 332 332 332 332 331 330 331 333 336 338 339 339 340 339 340 339 338
354 353 351 350 350 350 349 349 349 350 350 350 350 350 350 349 348 347 346 346 346 347 347 344 346 347 347 347 347 349 348 349 348 348 346 342 337 336 337 338 339 340 340 340 340 341 341 341 341 339 338 338 336 336 335 335 335 334 334 335 335 333 332 331 331 330 331 330 331 331 331 331 332 333 335 337 339 339 339 339 339 339 340 339 339
353 353 351 350 351 350 349 351 348 349 352 350 349 351 351 349 348 349 348 348 348 348 347 346 347 346 347 347 347 348 347 348 348 347 348 346 342 339 337 337 338 338 338 339 340 340 340 341 340 340 340 339 339 338 337 336 336 336 336 337 337 335 334 333 333 332 332 331 331 332 333 334 335 336 338 338 338 338 338 339 338 339 339 339 338
351 354 352 351 352 350 348 349 348 349 352 348 348 352 352 348 346 347 348 348 348 349 348 346 347 345 346 347 347 347 346 347 347 348 348 347 346 343 339 337 336 336 336 337 338 339 339 340 340 339 340 341 340 340 340 339 338 338 338 338 339 339 339 338 337 337 336 335 335 336 336 338 338 338 338 338 338 338 338 338 338 338 338 335 332
347 351 352 350 351 351 349 348 347 349 349 347 350 352 350 348 346 346 348 348 347 349 348 346 347 346 346 347 347 347 346 347 347 348 349 348 348 346 343 340 338 337 336 335 336 338 338 339 339 339 339 340 340 341 341 341 340 340 340 340 339 340 340 340 340 339 339 338 338 339 339 339 339 339 339 339 339 339 338 337 336 335 332 327 324
346 350 354 352 350 352 350 348 347 346 345 347 350 350 350 349 347 346 348 349 347 348 347 345 348 347 347 348 347 347 348 348 348 348 349 349 349 348 347 344 343 340 338 335 335 336 337 338 338 338 338 338 339 340 340 341 340 340 340 340 340 340 340 340 340 340 339 339 340 340 340 340 339 339 339 339 339 339 337 334 330 327 324 321 319
345 348 353 353 351 350 350 348 348 346 345 348 350 349 351 350 348 348 348 348 348 348 347 347 348 347 348 348 347 348 348 347 348 348 348 350 349 350 349 347 346 344 342 340 338 336 336 338 339 338 339 339 339 339 340 340 341 340 340 340 340 340 340 340 340 340 339 339 340 340 339 339 339 339 339 339 338 335 332 327 323 321 319 317 316
344 345 351 353 350 350 350 348 347 346 346 348 349 349 350 349 348 349 348 347 348 348 347 347 347 347 349 349 348 349 349 348 349 348 349 350 350 350 349 347 345 343 341 342 341 338 335 336 338 339 339 339 339 339 339 339 340 340 341 340 341 340 340 341 341 341 340 340 340 340 339 339 340 340 339 336 334 329 325 321 319 317 316 315 315
344 345 349 351 350 352 351 348 347 347 347 349 349 350 350 348 346 348 347 348 348 347 347 346 345 346 347 349 349 349 349 350 350 349 349 350 350 350 350 346 340 338 342 343 341 339 336 334 336 338 338 338 338 338 339 339 339 340 340 340 340 340 340 340 341 340 340 340 340 340 340 340 340 339 336 331 327 323 319 318 317 315 314 314 315
346 344 348 352 352 353 351 349 349 346 348 352 350 349 349 348 348 348 348 347 348 345 345 345 344 345 345 347 349 349 349 349 350 351 351 350 350 350 350 348 344 344 346 347 344 340 339 341 340 340 341 339 337 337 338 338 338 338 338 338 338 338 338 339 340 340 339 340 340 340 340 339 338 335 330 325 321 319 317 316 314 314 315 315 316
346 344 347 352 352 351 349 349 349 344 347 352 349 347 345 346 350 351 347 346 347 345 344 344 344 345 345 346 347 348 350 350 350 352 352 351 350 349 350 350 350 348 345 347 348 345 343 344 343 344 345 341 337 335 334 334 334 336 336 335 335 335 336 337 339 339 339 339 339 338 338 336 333 329 324 320 318 316 315 315 315 316 317 317 318
346 344 345 349 351 354 350 346 346 343 345 348 348 347 344 346 349 349 348 346 345 345 344 344 345 344 345 346 347 348 348 349 352 351 351 351 350 351 351 350 349 347 345 346 348 348 346 343 342 344 344 340 337 335 334 332 332 334 335 335 335 334 334 334 336 338 337 338 337 335 335 333 328 324 320 317 316 316 316 316 317 318 319 319 319
347 346 345 345 349 354 349 343 344 343 344 345 345 344 344 346 345 344 347 348 346 344 344 344 345 345 345 346 348 349 348 349 352 351 351 351 351 350 351 350 349 348 348 346 344 346 347 344 342 344 343 340 338 336 334 334 334 334 333 333 335 334 332 331 332 334 334 334 333 330 329 327 323 320 318 316 316 317 317 319 319 320 319 320 320
346 346 346 345 346 351 348 342 343 342 342 344 344 343 343 344 345 347 349 348 346 345 343 344 345 345 345 346 347 349 349 349 351 351 351 351 350 350 349 349 349 349 350 348 346 348 349 347 344 343 343 342 342 338 335 336 335 332 327 328 333 334 333 332 330 330 329 329 327 326 325 322 319 317 317 317 318 318 320 320 320 320 320 320 320
344 345 346 346 345 349 350 346 342 341 341 341 344 345 344 345 346 350 351 348 346 345 343 345 347 345 344 346 345 347 348 349 349 350 351 350 348 348 348 349 348 349 349 348 349 349 349 348 344 341 338 339 343 342 340 339 335 331 325 322 328 333 333 330 327 326 326 324 322 321 321 319 318 318 318 319 320 320 320 320 320 320 320 320 320
343 344 345 346 344 346 351 350 342 340 341 340 344 347 347 348 346 349 352 350 347 346 345 344 346 347 346 346 345 345 346 347 347 348 349 348 348 348 347 348 349 349 347 347 349 349 348 348 345 340 334 334 338 338 342 343 337 332 326 320 322 327 326 323 322 323 322 319 319 318 318 318 318 319 319 320 321 320 320 320 320 320 320 320 320
346 345 345 345 345 344 348 351 346 341 341 342 345 347 348 349 348 350 353 351 348 347 345 344 345 346 348 348 348 347 346 346 347 347 347 347 348 348 347 347 349 349 347 348 348 347 348 348 345 339 334 335 336 336 343 345 337 329 325 321 320 320 320 319 319 320 319 318 318 318 318 319 319 320 321 321 321 321 320 320 320 319 319 319 319
348 347 346 346 346 345 346 347 348 346 345 344 346 348 350 352 352 353 353 350 348 347 346 346 344 343 346 348 348 348 349 349 349 349 349 348 347 348 348 348 350 349 347 349 349 347 348 348 346 344 341 340 340 339 342 341 334 327 325 324 322 320 319 320 319 320 319 319 319 319 319 320 320 321 321 321 321 321 321 321 320 320 320 319 319
350 349 347 347 346 347 346 344 348 350 348 346 348 352 353 353 353 352 351 347 345 347 347 346 345 344 346 348 348 348 349 350 350 352 351 349 347 347 348 347 347 348 348 349 349 347 346 345 346 348 347 345 342 339 342 341 333 327 328 326 324 323 322 321 321 320 320 319 319 320 320 320 320 321 321 321 321 321 321 321 320 321 321 320 320
350 351 346 346 345 346 346 344 346 350 350 348 351 355 354 351 349 348 347 345 344 346 346 346 346 347 347 347 348 348 349 350 350 351 351 349 348 347 346 345 345 345 346 346 346 345 344 345 345 346 347 348 345 340 343 345 338 329 328 328 327 326 325 324 323 322 321 321 320 320 320 319 320 320 321 321 321 321 321 321 321 321 321 322 321
345 349 346 345 345 344 345 343 344 346 349 351 352 353 352 348 346 346 347 346 345 342 342 344 346 348 348 347 349 349 348 349 349 349 351 349 348 347 345 345 344 344 343 343 344 343 344 345 345 346 346 347 348 344 343 345 342 333 329 329 328 328 327 328 326 325 324 323 322 321 320 320 320 319 320 321 321 321 321 321 322 322 322 322 323
344 345 344 345 345 344 345 343 344 346 348 352 354 352 349 346 346 348 348 348 346 342 341 343 343 345 348 346 348 351 349 349 349 348 349 349 348 347 345 345 345 345 344 343 343 343 343 345 345 346 347 347 348 347 346 346 343 336 332 330 329 328 328 328 328 328 327 326 326 324 323 323 321 321 321 321 321 321 321 322 322 322 322 322 322
350 349 344 344 344 344 344 345 347 350 348 348 352 353 349 348 349 349 349 350 349 345 342 344 342 340 344 344 344 349 349 348 348 347 347 350 348 347 345 344 344 345 344 342 343 344 345 344 345 345 347 347 348 349 349 347 343 336 332 330 329 329 329 328 328 328 328 328 328 327 327 326 325 324 324 324 323 323 322 322 322 322 322 322 322
349 352 351 349 345 343 344 346 349 352 349 346 351 353 353 354 353 349 350 351 349 346 342 344 344 342 346 347 345 346 347 346 345 346 347 347 347 347 344 342 343 344 344 343 344 345 344 344 345 345 345 346 344 346 345 342 339 333 330 330 330 329 329 329 329 329 329 329 328 328 328 327 328 327 327 326 326 326 325 324 324 324 323 323 322
340 347 353 354 351 346 343 346 347 347 347 346 348 350 350 354 355 349 349 350 348 345 342 345 349 349 349 349 347 346 345 345 344 343 344 345 346 347 345 344 345 343 343 343 343 343 342 341 342 343 344 342 337 335 333 335 338 335 329 330 329 329 330 329 329 330 329 330 330 329 329 329 328 328 328 328 327 327 327 326 326 326 325 325 324
335 341 348 353 354 349 344 344 344 342 344 343 345 345 343 348 350 347 349 350 347 344 343 347 349 348 348 347 346 347 346 344 344 343 343 345 344 347 348 347 346 344 343 345 344 344 344 342 341 340 339 336 332 331 328 332 340 336 329 329 329 327 329 329 330 331 330 331 330 330 330 330 330 330 329 330 329 329 328 328 328 327 327 326 326
339 342 344 349 354 351 345 344 343 342 343 344 345 345 343 345 345 342 347 350 347 343 343 347 349 349 349 346 343 346 348 346 345 345 344 345 346 346 346 345 347 348 347 346 347 347 346 342 342 342 338 331 330 333 332 332 337 336 331 330 330 328 328 328 328 329 329 329 330 330 330 330 330 331 331 331 331 331 330 330 330 329 329 329 328
348 348 347 345 347 347 344 343 343 342 343 343 344 344 343 346 346 342 344 347 345 344 344 345 349 349 349 345 341 344 350 347 345 347 346 345 345 341 340 343 348 350 350 350 349 348 347 344 344 344 341 337 336 338 338 337 337 336 334 333 332 331 330 329 329 329 329 329 328 328 328 328 328 329 329 330 330 331 331 332 331 332 331 331 330
352 352 350 345 342 342 341 341 343 341 342 343 344 344 342 343 346 344 343 345 345 343 343 345 349 352 352 349 342 340 344 343 340 345 347 341 335 333 335 339 342 345 350 354 351 348 348 345 344 345 346 345 342 339 339 341 339 337 335 335 335 334 332 332 331 331 330 330 330 330 330 330 330 329 329 329 329 329 329 330 330 330 331 331 332
350 353 353 347 342 341 340 340 342 341 342 343 343 345 344 343 345 345 343 344 344 342 342 343 347 352 355 354 351 347 347 345 344 350 351 345 336 336 339 339 339 342 346 350 351 349 348 347 345 346 348 348 344 340 341 343 343 338 335 334 335 335 335 334 333 333 332 332 333 333 333 333 333 333 332 332 331 331 330 329 329 329 329 330 331
348 351 352 348 341 341 341 340 341 340 339 342 342 343 345 343 343 345 345 343 343 343 344 343 345 349 350 352 354 353 353 353 352 353 356 352 344 341 344 342 340 340 340 344 349 346 344 348 347 345 346 347 348 348 348 345 342 338 333 333 334 333 333 333 333 333 332 333 333 333 334 334 334 333 334 334 334 334 334 334 333 331 330 330 330
349 348 348 349 344 341 341 341 345 344 339 339 341 341 342 343 341 345 350 348 343 343 345 346 348 350 348 346 348 350 350 350 349 350 354 355 350 342 343 343 340 339 338 340 345 342 339 342 343 341 344 347 349 347 343 338 334 333 331 332 331 331 332 333 332 333 332 332 332 333 333 334 335 335 335 335 334 335 335 336 336 335 335 334 333
350 348 344 345 346 341 340 343 347 349 345 338 339 339 340 342 341 342 348 350 345 343 344 345 350 352 350 344 343 344 344 345 347 351 354 355 354 350 347 346 347 346 344 343 344 343 341 342 341 342 346 348 346 342 339 336 333 331 332 332 331 332 331 331 331 332 331 333 333 335 337 338 339 340 339 338 338 338 337 337 336 336 336 336 336
348 349 344 342 344 342 342 346 346 350 350 342 338 339 339 340 341 340 342 345 343 343 343 342 344 348 347 343 342 341 342 344 345 350 354 355 355 355 354 353 354 354 352 351 348 346 346 344 342 343 345 347 349 347 346 345 338 334 333 332 333 333 332 333 335 334 333 335 338 341 344 347 348 349 349 348 347 347 345 343 342 340 338 338 338
346 347 346 343 343 340 342 347 346 345 347 341 337 340 338 338 340 340 340 341 340 340 342 341 338 338 340 341 342 344 347 349 347 345 350 354 353 354 355 354 356 357 357 355 352 348 347 343 342 341 339 341 344 342 341 339 335 335 335 333 334 333 333 334 336 337 336 340 346 350 351 352 353 352 353 352 352 352 352 351 350 349 347 345 343
349 345 343 344 342 338 338 344 343 339 340 338 336 338 338 336 338 339 340 340 340 339 337 337 336 335 337 340 344 348 351 354 353 348 348 353 353 352 352 349 347 346 347 349 347 343 341 340 339 339 337 336 335 334 336 335 333 335 337 337 338 339 340 341 339 339 341 347 353 356 356 356 355 354 352 351 351 352 353 353 353 351 352 351 351
354 348 341 341 342 339 336 338 339 335 335 335 335 337 337 337 337 337 338 338 338 338 336 335 336 337 337 340 346 351 353 354 354 351 351 355 355 353 352 349 345 340 336 336 337 337 338 338 336 335 337 336 337 338 340 341 341 341 343 344 345 345 348 352 352 351 353 355 358 358 358 358 358 355 354 353 352 352 352 351 350 349 349 349 351
355 354 346 340 339 339 336 336 336 334 334 334 334 336 338 341 339 336 336 337 335 333 334 334 335 336 336 337 342 348 352 354 355 355 355 356 355 352 349 345 342 342 339 336 336 338 338 337 335 338 341 344 346 346 345 347 348 350 351 353 354 353 354 357 358 359 359 359 359 358 358 358 357 356 355 355 354 353 351 348 345 342 341 343 344
353 356 352 345 338 337 335 335 334 334 334 333 334 334 336 341 343 339 337 340 338 334 333 334 334 338 341 340 340 342 345 347 348 351 354 355 352 348 346 341 339 340 341 342 345 345 344 344 346 348 351 351 352 352 350 350 351 354 357 359 359 358 359 360 360 361 361 360 358 357 357 358 358 356 356 356 353 347 342 338 335 333 333 336 340
353 355 355 351 343 337 335 334 334 333 333 333 333 334 333 336 342 340 336 339 342 338 335 333 333 340 347 350 349 348 347 343 338 338 344 351 352 349 347 345 342 342 343 345 349 350 348 348 349 349 349 348 350 353 353 353 356 358 359 359 359 359 360 361 361 361 361 360 359 359 358 359 358 357 358 355 347 337 331 329 328 329 329 332 338
354 353 355 355 352 343 336 334 334 333 333 333 333 333 332 332 336 338 334 332 336 338 337 336 335 337 342 348 351 352 351 349 341 333 333 340 344 344 344 340 339 339 340 340 344 345 344 344 343 344 347 350 353 356 357 357 358 358 358 358 361 361 360 361 360 359 359 359 360 360 359 358 358 359 355 347 336 331 329 328 328 328 329 330 333
353 353 353 355 357 352 342 334 333 333 334 332 331 331 332 331 331 334 335 330 330 334 335 336 338 340 342 345 347 348 350 352 346 334 329 331 333 334 336 334 333 336 338 339 340 341 343 344 345 348 353 356 356 356 357 358 357 357 359 360 361 360 360 361 361 359 358 358 359 360 359 359 358 353 342 332 328 329 328 329 329 330 331 331 331
353 351 353 354 357 357 353 343 335 332 332 332 331 329 329 330 329 330 333 331 329 330 331 330 332 337 341 345 346 347 347 346 340 333 329 330 331 331 331 330 330 331 333 336 338 340 344 347 349 352 355 356 357 358 359 359 359 359 358 358 358 357 359 362 362 360 357 357 358 359 359 356 349 338 329 327 327 328 330 330 330 330 332 333 334
352 350 352 353 355 357 358 355 347 338 334 331 330 330 328 328 328 328 329 331 330 329 329 329 328 329 334 339 344 347 347 341 333 330 329 329 330 330 329 329 329 329 330 331 332 334 337 341 343 344 344 347 353 357 357 358 359 358 356 355 356 357 359 361 362 360 360 359 360 358 354 343 335 332 331 330 332 336 340 339 334 333 332 334 337
350 347 348 350 352 354 356 360 358 351 344 336 329 330 330 327 327 328 327 329 332 333 329 328 328 327 328 330 334 339 342 338 332 330 329 328 329 329 328 327 328 328 328 328 327 329 330 332 335 335 335 339 345 349 350 353 357 358 357 357 357 358 358 359 360 360 360 360 356 350 340 332 336 343 345 345 345 345 345 343 341 338 334 334 338
351 346 347 349 349 348 350 356 360 359 355 348 336 329 330 329 328 328 327 327 331 336 336 332 329 328 327 327 328 329 330 331 329 329 328 328 327 327 327 328 328 328 328 328 329 330 331 332 333 335 337 340 343 345 346 350 355 358 358 358 359 359 358 357 359 360 360 357 351 345 339 337 344 351 351 350 349 345 343 342 340 338 337 339 343
352 345 346 349 348 345 345 351 357 358 357 356 347 334 329 331 330 329 329 329 330 333 335 332 330 329 327 327 326 326 326 326 326 327 326 326 327 327 326 327 326 326 325 325 327 330 333 336 336 338 340 342 345 347 348 352 356 357 358 358 359 359 359 359 359 359 359 355 348 346 347 345 347 350 349 349 348 344 341 336 332 337 343 346 346
357 349 345 346 348 348 345 346 352 355 356 356 352 341 331 329 330 330 331 330 330 329 329 329 328 327 327 326 325 325 325 325 326 326 325 326 326 328 330 333 337 342 343 342 341 338 339 341 343 345 347 348 350 351 352 354 355 355 357 358 359 360 361 360 360 358 354 347 340 344 348 347 348 348 345 344 343 337 332 328 331 338 342 343 342
361 357 350 347 348 349 347 345 346 351 353 353 350 344 337 332 331 332 332 331 331 329 328 328 327 327 327 325 326 326 324 325 325 325 325 326 327 328 330 334 340 346 350 352 353 353 351 350 351 354 355 355 354 355 356 356 355 355 357 359 360 361 359 359 358 353 343 335 336 345 348 346 346 343 337 334 333 331 330 329 332 337 339 340 340
360 362 358 355 352 348 348 347 345 346 349 351 348 345 342 338 334 334 332 333 332 332 330 329 329 329 327 325 325 326 326 325 326 326 326 326 326 327 328 330 333 336 340 346 353 356 356 357 359 359 359 359 358 358 359 359 358 357 358 359 359 357 356 356 351 343 337 338 343 348 345 342 340 336 331 329 327 329 332 335 335 339 341 342 341
355 360 362 361 358 353 348 348 348 347 347 349 349 347 345 342 339 338 337 336 335 334 332 332 331 330 329 328 327 326 326 326 327 327 327 327 327 327 327 330 334 339 343 350 356 359 359 359 360 359 360 360 361 361 361 360 359 358 360 360 355 351 351 350 345 341 344 346 346 344 340 336 332 328 328 333 334 331 333 336 338 339 339 339 340
Wind_Speed
6 5 5 5 5 5 5 4 5 7 6 6 5 7 11 8 6 8 7 7 8 8 8 7 7 8 7 8 10 8 7 7 6 8 8 8 8 8 8 7 7 7 6 6 7 7 7 7 7 7 7 6 5 5 5 5 5 5 5 5 4 4 4 3 3 3 3 4 4 4 4 4 5 5 5 6 6 6 6 7 7 8 8 8 9
5 5 5 5 4 4 5 5 5 6 6 5 3 6 11 8 5 8 9 8 8 8 8 8 8 7 6 7 10 8 7 7 7 7 7 6 7 8 7 7 7 6 6 5 5 6 6 6 6 6 6 6 6 5 5 5 5 4 4 5 5 4 4 4 4 4 4 3 3 3 4 4 5 5 5 6 6 7 8 8 9 9 9 9 9
6 4 4 4 4 3 4 5 4 6 6 4 4 7 8 8 7 6 8 8 6 7 8 9 10 8 7 8 9 7 5 7 7 7 6 5 5 6 6 6 6 6 5 5 5 4 4 5 5 5 5 5 5 5 5 5 5 5 4 4 5 5 5 4 4 4 4 3 3 4 4 4 5 5 6 7 7 8 9 9 9 9 9 9 9
8 6 4 3 3 3 5 4 3 6 5 4 7 6 5 7 8 7 8 9 6 6 7 8 8 8 9 9 9 6 4 7 8 7 6 5 4 5 5 5 6 6 5 5 5 4 4 4 4 4 4 4 4 4 4 4 4 4 4 3 3 3 3 4 4 4 4 3 4 4 4 5 5 6 6 7 7 8 8 9 9 9 8 8 8
7 7 4 2 3 3 4 4 4 5 4 6 9 6 5 8 8 8 8 8 6 6 7 8 7 8 10 9 8 6 5 8 8 6 5 5 4 4 4 4 4 5 5 5 4 4 4 3 3 3 3 2 2 3 2 2 2 2 2 2 2 2 2 2 2 3 3 3 4 4 5 5 6 6 7 7 7 8 8 8 8 8 7 8 8
7 8 5 2 3 3 3 4 5 5 6 7 7 5 6 8 8 8 7 5 5 7 8 9 8 8 10 7 6 7 6 7 7 6 5 4 5 4 3 3 3 4 4 4 4 3 3 3 2 2 2 2 2 2 2 2 2 1 1 1 1 2 2 2 2 2 3 3 3 4 5 6 6 7 7 7 7 8 8 8 7 7 7 8 8
6 7 6 3 2 3 2 4 5 5 6 7 6 7 7 7 8 7 7 7 6 6 6 7 7 6 7 5 6 7 6 6 5 4 5 5 5 4 3 2 2 3 4 3 3 3 2 2 1 1 1 1 1 1 1 1 1 2 2 2 2 2 3 3 3 3 3 4 4 5 5 6 7 7 8 8 8 8 8 8 8 8 8 7 7
5 5 6 3 2 3 3 3 4 5 6 6 7 8 6 5 6 6 7 9 6 5 4 5 6 6 6 5 6 6 5 6 4 3 4 5 4 4 3 3 2 2 3 2 2 2 2 2 2 2 2 2 2 2 2 2 1 2 2 3 3 3 4 4 4 4 4 5 5 5 6 6 6 7 8 8 8 8 8 8 8 8 8 7 7
5 4 5 3 2 2 3 4 4 6 7 8 8 7 5 5 5 5 6 8 5 4 5 4 6 6 5 5 5 5 5 5 4 3 4 5 4 4 3 2 2 2 2 1 1 2 2 2 3 3 3 3 3 3 3 3 3 3 3 3 3 4 4 4 5 5 5 5 5 5 6 6 6 7 8 8 8 8 8 8 8 8 7 7 6
5 4 4 3 2 1 3 4 4 6 6 8 8 6 5 5 5 5 5 6 5 4 5 5 5 5 5 5 5 5 4 3 4 3 3 3 4 4 3 2 2 2 2 1 0 1 2 2 3 2 2 3 3 3 4 4 4 4 4 3 4 4 4 4 4 4 4 5 5 5 6 6 6 7 7 7 8 8 8 8 8 7 6 6 6
5 5 4 3 2 1 3 3 3 5 6 7 7 6 6 6 4 5 4 5 5 4 5 5 5 5 4 4 3 4 4 3 3 3 3 3 3 4 3 2 3 3 3 3 2 2 1 1 2 2 1 3 4 4 4 4 4 5 4 4 4 4 4 4 4 4 4 4 5 5 5 6 6 7 7 7 7 7 7 7 7 6 6 6 5
6 5 4 4 3 2 1 3 4 5 5 5 5 6 7 7 5 4 4 4 4 3 4 4 4 4 4 3 3 3 3 3 3 2 3 3 3 4 3 2 2 2 2 2 3 2 2 1 2 2 1 2 4 4 5 5 5 4 4 4 4 4 4 4 4 4 4 4 5 5 5 5 6 6 6 6 6 6 6 6 6 6 6 5 5
5 5 4 3 4 3 1 3 5 4 3 4 5 5 6 6 4 4 4 4 3 3 3 3 3 3 3 3 3 2 2 2 3 2 2 3 3 3 4 3 1 1 1 1 1 1 1 2 2 2 2 3 3 5 6 6 5 4 5 5 4 3 3 4 4 4 4 4 5 4 4 5 6 6 5 6 6 6 6 6 6 5 5 5 5
6 5 4 3 3 2 2 1 5 2 3 3 4 5 6 5 5 5 4 3 3 2 3 3 3 2 3 2 3 3 1 1 2 2 2 3 3 3 3 3 2 1 1 1 2 1 1 3 3 2 2 3 3 5 6 6 5 5 6 6 4 3 3 3 3 4 4 4 4 4 4 4 5 5 5 5 5 5 5 6 6 6 5 5 5
7 6 5 4 3 3 3 1 4 2 3 4 4 5 6 6 5 5 5 3 2 2 3 3 3 2 3 3 3 3 2 1 2 2 2 2 2 2 2 2 2 1 0 1 2 0 1 3 3 2 2 3 2 4 5 5 6 7 7 6 4 3 3 3 4 4 4 4 4 3 3 4 4 4 4 4 4 5 6 6 6 6 6 6 6
7 6 5 5 4 4 3 3 1 2 2 3 3 4 6 6 4 5 6 3 3 3 2 3 3 3 2 2 2 3 4 3 3 2 2 2 1 2 2 1 2 1 1 1 1 2 2 2 2 2 2 2 2 3 3 4 7 7 6 5 3 3 3 4 3 3 3 3 3 3 3 3 3 3 3 4 5 6 6 7 6 6 6 6 6
7 6 6 5 5 4 4 4 2 1 2 2 2 3 5 5 4 5 5 4 4 3 3 2 2 4 4 3 3 4 5 4 3 2 2 1 1 2 1 1 2 2 2 1 2 1 1 3 3 3 3 3 3 2 1 4 7 7 6 3 3 3 3 3 3 2 3 3 2 2 3 3 3 3 3 4 5 6 6 7 7 7 7 7 7
8 7 7 6 6 5 5 5 4 4 2 1 1 2 3 4 4 4 3 4 5 4 4 3 1 3 5 4 3 3 3 3 3 3 2 2 1 1 0 1 1 3 4 2 3 3 1 2 4 4 4 4 4 3 2 4 6 7 6 5 4 4 3 3 3 2 2 3 2 2 3 3 3 3 3 4 5 6 6 7 7 7 8 8 8
9 8 8 7 6 6 6 5 5 4 3 2 1 1 2 1 3 3 2 4 5 5 4 3 2 3 3 2 2 2 2 3 4 3 3 3 2 1 1 1 1 1 3 2 2 4 4 3 2 3 5 7 7 5 4 6 7 6 6 6 6 5 5 5 4 4 4 4 3 3 3 3 4 4 4 5 6 6 7 7 7 7 8 8 8
10 10 9 8 7 7 7 6 6 5 4 3 2 2 2 1 2 3 3 4 5 5 4 3 3 3 2 3 2 2 2 3 3 3 4 4 4 3 3 2 2 0 1 1 0 1 4 6 3 2 4 7 9 8 4 6 9 8 6 6 7 6 6 6 6 5 5 5 5 5 5 5 5 6 6 6 7 7 7 7 7 8 8 9 9
11 11 10 9 9 8 7 7 7 6 5 3 3 4 5 3 1 2 3 4 4 4 4 4 4 2 2 3 2 2 2 2 2 3 4 3 4 4 3 3 3 2 1 1 1 0 2 5 4 3 4 5 7 9 6 6 8 10 9 8 8 8 8 7 7 7 7 6 6 7 7 7 7 8 8 8 8 8 8 9 9 9 9 10 10
11 13 12 11 10 9 8 8 7 7 6 5 5 6 5 3 1 2 2 3 3 3 3 3 4 3 2 1 3 2 2 2 2 2 3 3 3 3 3 3 3 2 1 0 0 1 1 2 4 5 6 5 5 7 7 7 9 10 10 10 9 10 9 9 9 8 8 8 8 8 8 9 9 9 10 10 10 10 10 10 11 11 11 11 11
12 13 13 13 12 11 10 9 8 8 8 7 7 6 4 4 3 2 3 3 3 3 3 2 2 3 2 1 2 2 1 2 2 2 3 2 2 3 4 4 3 2 1 2 1 1 2 3 3 3 4 5 5 6 8 9 10 10 10 10 10 10 10 10 10 10 10 10 10 10 10 11 11 11 12 12 12 12 13 13 13 13 13 13 13
15 13 13 13 13 12 11 10 10 10 9 8 7 6 5 5 5 4 4 3 3 3 2 2 1 2 3 1 1 2 1 1 1 2 2 2 2 2 4 4 3 2 2 2 2 2 3 3 3 3 5 5 5 6 8 9 9 8 8 8 8 8 9 9 9 10 10 10 11 11 11 12 12 13 13 14 14 14 15 15 15 16 16 16 16
19 17 14 14 14 14 13 12 12 11 10 9 8 9 8 8 7 6 5 4 4 4 3 3 2 2 3 3 2 1 1 1 1 1 1 2 2 2 3 3 3 3 2 2 2 2 3 3 3 3 5 6 5 5 5 7 8 7 7 7 7 6 7 8 8 9 10 10 11 11 12 12 13 13 14 15 15 16 16 17 17 18 18 18 18
21 20 17 15 15 16 14 13 13 12 11 10 9 9 9 9 9 7 6 5 5 5 4 4 4 4 3 4 4 2 1 2 1 0 0 1 2 2 3 3 3 3 3 3 3 3 3 2 3 4 5 6 5 5 6 7 8 9 8 9 10 8 8 9 10 10 11 12 12 13 13 14 14 15 15 16 16 17 17 18 18 19 19 20 20
21 20 19 18 17 16 15 14 14 13 13 12 11 10 9 9 9 8 7 7 7 7 6 5 5 4 4 4 4 3 2 1 1 1 1 1 1 2 3 4 4 3 3 3 3 4 3 3 4 5 7 7 6 9 11 10 10 12 11 12 14 14 12 12 12 13 13 14 15 15 16 17 17 17 18 18 19 19 19 20 20 21 21 21 22
19 19 20 19 19 18 16 15 15 15 14 13 13 12 11 10 9 9 8 9 8 7 7 7 6 5 5 5 4 4 4 4 3 3 2 3 3 4 4 3 4 4 4 4 4 3 4 5 6 7 10 12 13 13 13 12 11 12 13 14 16 17 16 15 15 15 17 17 18 19 19 19 20 20 21 21 22 22 22 23 23 23 23 24 24
18 19 20 20 19 19 18 17 16 16 15 15 14 14 13 12 11 10 9 9 9 9 9 8 7 6 6 6 6 4 5 6 5 5 5 6 6 5 5 4 5 5 4 5 5 4 5 5 6 9 11 13 16 15 12 12 13 13 14 15 17 18 19 19 18 18 19 20 21 21 21 21 22 22 23 24 25 25 26 26 26 26 27 27 27
21 19 20 20 19 19 19 19 18 17 16 16 15 15 14 14 13 12 11 10 11 10 10 10 9 9 8 7 7 6 6 6 5 5 7 8 6 5 6 6 6 6 6 7 7 6 6 6 5 8 10 13 16 14 11 13 14 15 16 16 18 19 20 21 21 20 20 21 22 22 22 23 23 23 24 25 26 27 28 28 29 30 30 30 30
24 22 20 20 21 20 20 20 19 19 19 17 17 16 15 15 15 13 12 12 12 11 10 10 10 10 11 10 10 9 8 8 7 6 7 10 9 6 6 8 8 7 8 9 10 8 7 8 9 9 11 13 14 13 14 15 16 18 19 18 19 19 20 21 22 22 22 22 23 23 23 24 24 25 25 26 27 28 29 30 31 32 33 33 33
25 25 23 22 21 22 22 21 20 20 20 19 18 18 17 16 16 15 13 13 13 12 12 11 10 11 12 12 12 12 11 10 10 9 8 10 11 9 8 9 10 10 10 10 13 13 11 11 13 13 12 13 14 15 16 17 17 19 20 20 20 20 20 22 23 24 24 23 23 23 24 24 25 26 27 28 29 30 31 32 33 34 35 35 35
25 25 26 24 23 23 22 22 21 20 21 21 19 19 19 18 18 17 15 15 15 14 13 13 12 12 12 12 12 12 12 11 11 10 9 10 11 11 10 10 10 10 11 12 14 16 16 14 15 16 14 14 16 18 18 19 20 21 22 23 23 23 23 24 25 26 25 25 24 23 22 23 24 25 27 28 30 31 32 33 34 36 36 37 37
26 26 26 26 24 24 23 22 22 21 22 22 21 20 20 19 19 18 18 18 17 15 15 15 14 14 14 14 13 12 13 13 12 11 10 10 10 11 10 10 11 11 12 13 15 17 18 17 17 17 17 16 17 18 19 21 24 25 25 25 25 25 25 25 25 26 27 26 25 24 23 23 23 24 26 27 29 30 31 33 35 36 37 38 38
27 27 27 26 26 26 24 23 24 24 24 24 23 22 22 21 20 19 19 20 20 18 18 18 17 16 16 15 14 13 13 14 13 12 12 12 12 12 12 12 12 12 13 14 16 18 19 20 19 19 20 19 18 19 20 22 25 26 26 26 26 26 25 24 25 26 26 26 25 25 24 24 24 25 26 27 28 29 31 33 35 36 37 37 38
27 28 28 27 27 27 27 26 26 26 26 26 25 24 24 24 22 21 20 20 21 20 20 20 19 17 16 16 15 14 14 15 15 14 13 13 13 14 14 14 14 14 14 15 17 19 21 22 23 22 23 23 22 22 22 24 25 25 25 25 25 24 22 21 23 24 23 22 23 25 26 27 28 28 28 27 27 27 28 30 33 35 36 36 37
26 28 29 29 29 29 29 28 28 28 28 27 26 25 25 25 25 24 23 22 22 21 21 20 19 17 17 17 16 15 15 15 16 15 14 14 14 14 14 15 15 15 16 17 18 19 21 23 24 24 24 24 24 24 24 24 25 25 25 24 22 20 18 16 17 19 18 18 19 21 24 26 28 28 29 28 28 27 27 28 30 32 34 34 35
27 27 29 31 31 31 30 30 30 30 29 29 28 27 25 25 26 26 25 24 24 23 22 21 20 19 19 18 17 16 16 16 16 16 15 14 14 15 15 15 15 16 17 18 19 20 22 23 24 24 23 23 23 23 23 23 24 24 21 19 17 17 18 18 18 17 16 16 19 22 23 23 24 26 28 29 31 32 32 33 35 35 35 34 34
28 27 28 30 32 32 31 31 31 31 30 29 29 28 27 25 25 25 25 24 24 24 23 22 21 20 19 19 19 18 18 18 18 17 16 16 16 16 16 16 17 18 18 18 18 19 21 22 22 22 21 21 20 20 21 22 23 21 17 16 16 16 18 21 22 22 22 25 29 29 23 19 20 24 27 30 34 37 39 39 40 41 40 38 36
28 27 27 28 31 32 32 32 31 31 30 30 30 30 29 27 26 26 26 24 24 24 24 23 22 20 19 19 19 19 19 20 19 18 17 17 16 16 17 17 18 19 19 18 18 18 20 21 22 22 22 22 21 19 20 20 20 18 16 18 20 19 19 21 24 26 29 31 30 25 19 19 21 22 25 31 36 39 40 41 41 42 43 41 39
29 28 27 26 28 31 32 32 31 31 31 31 31 31 30 29 28 28 28 27 25 25 24 24 23 22 21 20 19 19 20 21 20 19 18 18 18 17 18 19 20 20 20 20 20 20 22 23 24 24 23 22 19 16 16 17 18 19 19 20 21 21 20 22 24 27 29 30 26 21 22 26 27 25 27 34 38 39 39 40 40 39 38 38 38
30 29 28 27 26 28 31 32 32 32 32 32 32 31 30 29 29 29 29 29 27 26 26 25 24 23 22 21 21 20 21 22 23 21 19 19 19 19 19 21 21 21 22 22 22 22 23 24 25 23 21 20 18 15 15 16 18 20 21 22 22 23 22 22 24 28 30 31 29 27 30 32 32 32 35 37 38 38 37 36 36 36 35 35 36
31 31 30 29 27 26 28 31 32 32 33 33 33 31 29 29 29 29 30 30 30 28 28 27 26 24 23 22 22 21 22 24 25 24 22 21 21 20 21 22 23 23 24 24 24 24 24 24 24 23 22 22 19 16 15 16 17 19 21 22 24 27 26 24 26 30 31 31 32 35 37 36 35 37 37 37 37 36 33 33 34 37 39 39 38
34 33 32 32 30 28 26 27 30 32 33 34 33 30 29 28 28 28 29 30 31 30 29 29 27 26 25 24 22 21 22 24 25 25 24 23 23 22 23 23 24 24 25 26 26 27 27 27 28 27 28 28 24 19 18 17 17 19 21 23 26 28 28 27 27 30 30 30 33 38 40 38 35 36 36 36 36 34 33 34 37 39 41 42 42
36 35 34 34 33 31 28 27 27 29 30 33 33 31 29 28 27 27 28 28 30 30 30 30 29 28 28 27 26 24 24 25 26 27 27 26 25 25 25 25 25 26 27 28 28 29 28 29 31 31 31 31 29 27 25 21 19 19 21 23 24 27 30 31 30 31 32 32 32 34 39 39 34 30 30 31 32 32 33 36 38 40 41 40 40
37 37 36 35 35 35 33 30 28 28 28 30 33 32 29 28 27 27 27 28 28 29 29 30 30 29 29 28 28 28 27 28 29 29 30 30 29 28 27 27 27 27 27 28 28 28 28 29 31 31 31 30 30 31 29 24 21 20 21 23 23 27 32 33 34 34 32 30 29 30 35 37 31 25 26 27 29 31 33 36 40 41 40 37 36
38 39 37 36 36 37 36 33 31 30 29 29 31 33 30 29 29 28 28 29 29 30 30 31 31 31 31 31 30 30 30 30 30 30 30 31 30 30 30 30 29 29 30 29 29 27 27 27 28 29 28 28 28 28 26 22 21 21 22 24 25 27 30 32 33 32 25 23 25 26 30 32 28 26 28 27 28 32 37 40 41 38 34 32 33
35 38 38 37 37 37 38 37 34 32 31 30 32 34 32 30 29 30 30 31 31 32 33 33 34 33 33 33 33 33 32 32 31 31 30 31 30 30 30 29 27 25 24 25 26 27 26 26 26 25 24 24 24 24 22 21 22 24 25 26 26 26 26 26 26 25 22 23 26 24 26 29 28 30 34 33 33 39 43 42 36 31 29 30 32
32 34 38 38 38 38 38 38 37 36 33 33 34 35 34 33 31 31 32 33 34 35 35 35 36 36 36 35 35 35 35 34 33 32 31 31 31 31 30 29 27 24 23 22 21 23 25 25 23 22 22 22 22 22 22 22 22 22 24 26 26 24 22 20 21 23 26 29 26 20 21 27 28 31 39 43 43 43 41 37 32 29 29 30 32
32 30 32 35 37 39 39 38 38 37 35 35 36 37 36 35 34 33 34 34 35 36 36 36 37 37 37 37 36 36 36 35 34 33 33 33 33 32 32 31 30 29 27 24 20 20 21 21 20 20 21 22 21 21 22 21 19 20 23 24 23 21 19 19 22 27 28 26 21 18 23 30 32 34 40 46 46 41 35 32 32 31 31 31 32
35 30 28 30 33 36 38 37 37 37 36 35 36 37 37 37 35 34 34 35 36 37 37 37 38 38 39 38 38 38 38 36 36 35 34 34 34 33 33 32 31 28 26 21 17 16 18 19 20 20 20 20 20 20 20 19 19 20 19 18 19 20 20 20 23 26 24 20 19 23 29 32 35 38 38 37 39 40 35 31 32 33 31 30 30
Wind_Direction
132 128 138 141 135 129 112 94 85 89 85 82 107 117 105 101 113 116 108 108 105 103 117 116 99 102 106 106 104 97 91 92 87 86 92 97 101 104 104 104 106 111 114 113 114 113 110 106 101 101 101 103 105 104 102 98 95 92 91 91 88 85 76 64 54 45 38 33 24 15 7 4 6 8 9 13 14 9 5 360 355 353 352 353 353
136 141 143 130 122 124 114 104 88 89 89 79 64 70 86 94 104 111 111 111 112 110 117 123 118 114 109 97 91 89 94 101 94 82 88 99 105 106 104 106 109 109 109 108 109 112 114 113 107 107 109 108 106 103 101 94 88 83 79 79 73 71 68 61 52 44 40 33 21 12 5 4 5 3 5 3 359 355 350 349 347 345 345 347 348
143 131 130 123 119 116 103 107 102 88 83 78 66 62 76 80 72 91 104 101 116 127 120 120 125 127 115 99 90 94 109 113 102 91 97 107 106 108 107 105 105 101 101 104 106 103 103 107 109 112 113 113 113 108 104 98 92 83 75 72 67 64 63 61 58 48 42 35 22 13 8 6 1 357 356 351 347 345 342 341 341 340 341 344 348
149 132 127 129 124 95 81 93 89 74 63 57 61 62 65 64 73 97 104 99 107 120 122 116 112 118 114 99 93 96 91 89 95 102 110 115 108 106 109 108 107 101 96 97 101 98 95 98 100 102 102 103 106 104 105 105 101 94 85 80 75 69 60 54 52 45 36 27 18 9 2 355 350 346 343 341 339 340 340 339 340 342 344 347 351
148 129 114 109 114 72 67 80 75 68 61 60 55 49 47 47 70 96 95 94 97 99 110 110 94 96 102 93 92 99 80 72 86 103 104 112 110 100 105 108 109 104 96 94 98 99 94 93 85 79 79 74 72 72 75 84 87 90 87 78 66 53 42 29 21 17 8 359 356 351 344 338 335 334 335 337 338 339 341 343 346 349 350 350 351
147 129 112 113 105 65 69 78 68 59 57 67 60 46 51 47 58 86 99 98 95 89 92 103 96 86 93 96 101 102 91 82 93 109 113 123 120 116 113 101 105 95 84 84 88 90 82 81 81 71 67 55 38 33 37 37 21 14 21 6 352 347 344 349 343 339 334 331 331 330 330 329 330 334 334 338 342 343 343 347 351 351 349 347 347
153 137 121 141 121 75 63 62 61 58 59 72 67 48 42 47 53 69 101 102 91 87 86 102 105 96 102 113 111 99 91 94 101 105 119 133 127 135 139 118 126 97 84 85 76 75 66 59 56 43 33 15 1 353 354 335 311 314 317 304 306 308 303 308 309 310 313 314 320 325 331 333 333 335 333 335 343 346 346 348 350 347 347 347 348
161 145 124 138 128 83 56 58 57 50 59 69 66 61 41 44 66 64 85 94 85 83 90 100 98 103 117 117 111 104 96 97 95 76 107 131 131 137 143 134 154 135 114 107 83 70 50 37 28 12 351 343 340 336 325 301 282 279 283 278 285 292 290 293 297 301 308 315 322 327 332 331 328 331 333 338 344 344 344 346 347 347 350 353 354
164 159 141 128 94 63 42 56 50 41 54 58 50 57 50 44 79 80 80 88 81 83 96 98 96 104 113 110 108 102 98 103 108 106 118 135 138 139 147 139 142 125 112 98 87 83 55 33 16 7 353 349 342 336 329 318 316 302 292 289 293 302 304 301 302 309 316 321 327 328 328 325 324 331 337 342 344 343 344 348 349 350 354 359 0
172 178 155 126 94 64 52 55 38 34 51 62 46 35 57 58 68 73 76 85 77 79 96 99 102 105 103 106 110 101 96 104 113 119 116 125 142 148 154 150 133 113 130 171 294 8 46 33 3 1 359 4 356 347 343 332 328 321 312 312 314 319 322 317 311 313 321 327 330 328 325 325 326 333 340 343 343 343 346 350 352 353 359 3 3
183 187 163 146 132 87 74 73 44 44 60 75 54 31 56 69 64 63 69 83 76 78 91 91 93 96 99 103 106 105 100 97 111 118 123 135 149 150 153 156 158 159 161 170 200 308 348 4 349 345 351 5 5 1 359 350 339 326 322 323 322 324 324 322 317 315 321 324 326 327 328 329 329 334 338 340 341 343 347 353 353 355 0 3 4
189 195 181 165 132 83 80 93 62 48 61 66 48 41 58 65 72 73 69 77 75 83 88 86 96 87 87 101 98 103 103 103 123 130 136 152 150 143 159 172 163 162 159 158 178 221 299 338 342 333 334 1 2 5 2 355 351 340 332 327 318 321 324 323 320 317 318 317 320 328 331 327 325 331 334 336 342 344 346 352 352 351 357 359 357
192 196 194 186 138 118 217 97 73 41 44 54 40 54 64 66 90 95 80 86 80 90 96 82 95 89 82 110 112 115 101 92 120 143 142 152 152 144 154 166 158 139 154 195 179 174 291 313 341 346 341 359 2 3 0 350 351 349 336 327 315 312 321 326 327 321 317 315 317 326 325 318 322 328 332 337 342 345 347 350 347 345 349 349 345
201 199 203 213 161 154 245 99 91 49 29 59 46 50 62 70 92 83 73 101 89 92 124 90 66 83 104 120 127 134 121 74 127 154 154 148 147 142 137 145 146 139 162 311 344 69 248 297 340 5 333 352 358 349 350 347 347 340 326 318 309 306 315 322 327 323 318 319 319 320 315 312 321 329 333 340 343 345 346 345 341 338 339 339 335
209 208 209 216 195 181 233 221 109 82 23 52 52 49 65 80 97 84 71 98 92 77 126 104 62 72 110 123 138 138 119 122 157 157 163 152 143 146 138 139 152 158 106 353 328 322 224 271 319 347 348 0 345 324 331 334 337 334 323 313 300 298 308 314 319 321 321 323 317 312 311 310 320 330 335 342 345 344 345 341 337 333 333 332 330
214 213 210 214 214 199 218 238 145 82 41 52 58 62 76 85 99 96 87 92 96 84 99 101 90 94 92 81 113 119 101 112 132 132 151 148 143 156 142 134 174 188 56 43 286 282 279 286 294 302 338 349 309 310 319 322 330 333 328 319 309 304 309 315 317 320 324 326 313 307 312 314 320 330 335 341 345 344 341 337 333 329 327 326 326
213 212 209 214 217 210 215 231 256 249 146 98 65 80 87 90 85 87 98 107 109 108 97 89 107 117 101 69 78 88 81 89 105 108 128 137 144 164 138 101 198 260 346 335 289 324 288 286 299 305 327 324 310 328 310 291 311 333 347 345 334 325 318 319 320 322 325 319 307 299 305 313 315 320 331 337 340 338 335 333 329 325 324 323 323
213 213 210 214 217 215 218 220 243 250 203 146 17 48 71 89 87 81 95 108 112 118 113 103 98 107 96 78 73 73 62 59 74 90 95 81 90 152 100 49 194 291 345 350 315 353 344 266 304 316 324 323 322 334 306 281 295 323 348 359 355 342 332 333 326 321 326 318 312 301 297 302 299 299 311 321 326 327 327 327 325 323 322 322 321
214 218 213 214 218 217 221 218 224 240 230 221 212 44 14 65 99 109 114 112 116 120 126 115 80 91 104 90 71 70 72 57 59 75 71 63 54 73 125 71 148 277 347 1 314 340 338 313 302 283 299 317 328 335 317 302 307 317 335 344 349 348 341 338 333 328 327 323 317 305 295 290 285 288 295 303 309 312 315 315 315 315 315 314 314
213 221 221 216 222 221 223 221 217 222 223 221 193 175 236 232 103 113 113 111 119 125 143 143 92 99 150 134 84 56 80 61 56 67 54 63 68 65 86 75 56 31 334 355 41 321 312 325 338 238 277 299 314 328 322 298 309 318 323 329 333 335 335 329 326 325 321 317 312 304 296 288 283 283 285 289 294 296 298 299 299 301 302 304 305
216 221 224 220 226 226 226 224 219 220 216 215 210 213 233 238 116 107 113 115 125 132 147 153 129 112 144 134 106 68 74 63 62 72 55 65 76 66 80 83 56 47 25 20 63 139 286 316 317 289 289 278 288 313 322 298 302 314 320 324 322 322 323 319 316 313 309 305 301 295 292 287 283 282 281 281 283 286 288 288 290 291 292 294 295
224 225 226 223 227 228 229 226 221 223 213 200 206 223 240 241 184 142 132 123 128 131 132 152 154 140 157 150 115 95 75 81 83 74 67 59 47 42 60 76 81 71 48 80 326 304 264 282 293 297 305 295 277 292 304 300 299 309 318 321 317 313 312 312 310 306 302 299 294 292 289 285 283 282 281 281 280 282 282 284 285 285 285 286 287
227 230 229 227 228 228 230 227 218 222 223 210 205 218 238 248 232 187 167 154 147 146 134 151 172 149 159 178 108 111 83 88 88 69 69 64 36 25 39 52 66 70 6 331 332 303 270 273 280 276 276 283 279 274 278 287 296 309 318 319 316 313 310 309 308 306 302 296 293 290 287 286 284 284 282 282 281 281 280 280 280 280 280 279 279
225 227 228 227 229 229 229 226 217 218 225 220 206 202 206 225 240 217 185 181 165 157 150 151 166 135 141 179 154 141 152 139 107 86 69 69 66 27 36 48 36 37 24 342 338 315 285 277 271 269 270 271 266 263 272 286 301 318 327 322 318 315 311 307 303 300 298 294 292 289 287 286 284 283 282 281 281 280 279 278 277 276 276 275 275
227 225 224 221 225 228 226 224 223 221 222 220 212 209 200 203 226 224 199 196 178 170 182 173 187 189 167 181 196 171 163 169 119 104 82 60 56 1 14 32 359 3 21 340 328 316 296 274 254 258 271 281 285 285 296 302 299 312 323 317 314 310 301 299 295 291 290 289 289 288 286 285 284 283 281 280 280 279 278 277 276 275 274 273 273
233 228 224 217 221 227 225 223 226 225 223 220 220 223 214 209 221 220 210 213 194 180 190 189 203 214 193 182 183 191 199 168 157 151 91 11 10 344 338 343 334 341 339 310 313 315 296 273 270 269 270 277 291 302 312 307 287 292 306 302 301 302 293 289 289 288 288 288 288 289 287 286 285 284 282 281 280 279 278 277 276 276 274 274 273
234 228 225 219 219 225 225 222 224 224 221 221 220 225 225 223 227 223 217 222 208 194 197 197 212 227 220 211 194 193 223 212 213 267 310 321 319 306 305 324 332 336 334 313 302 295 279 265 255 262 277 287 301 305 309 311 292 289 298 293 292 298 297 293 290 288 289 288 288 287 287 286 285 284 283 282 281 280 279 279 278 277 276 275 274
227 225 225 225 223 226 227 222 222 223 221 220 220 223 226 225 231 230 223 226 219 206 205 202 209 224 233 240 227 205 221 227 223 242 255 247 253 265 282 307 308 311 326 321 309 292 280 278 260 262 282 299 311 311 305 305 301 297 302 298 295 298 301 300 296 291 290 290 290 289 287 286 286 285 284 283 282 281 280 279 278 278 277 276 275
217 219 222 227 225 225 229 226 222 222 221 221 219 220 225 224 228 233 228 231 230 217 213 210 209 219 233 251 260 241 230 238 240 243 252 257 263 277 285 284 280 288 296 294 296 294 287 288 277 280 294 302 308 309 301 299 304 306 306 304 300 301 303 304 302 297 295 293 293 293 292 291 289 288 287 286 285 283 282 280 279 278 277 276 275
213 214 218 224 224 222 227 228 225 223 222 222 221 218 222 224 226 231 229 232 235 228 222 219 215 216 218 230 251 255 251 257 262 261 268 276 284 288 286 286 287 287 285 282 286 290 287 285 279 287 300 302 303 308 304 296 299 304 307 304 300 301 302 302 303 303 301 299 298 297 297 296 295 293 291 290 288 286 284 282 281 279 278 276 275
214 213 215 221 224 221 222 224 225 226 224 223 223 221 221 223 226 230 232 234 235 232 229 223 223 226 222 218 227 237 242 244 245 244 256 271 283 288 283 288 292 290 288 284 281 284 286 282 277 279 289 294 294 293 291 292 295 301 306 303 299 301 300 299 301 303 303 304 303 302 301 299 297 295 293 291 289 288 285 283 282 281 279 277 276
215 217 218 219 222 222 221 220 220 225 227 225 224 225 222 223 227 228 231 236 235 232 232 229 227 233 235 231 230 234 239 243 246 245 243 256 273 282 280 282 289 293 295 288 283 289 297 293 288 287 289 287 285 285 289 296 300 302 303 301 301 303 302 301 302 303 305 307 307 307 305 303 300 296 294 291 289 287 284 283 282 280 279 277 276
215 218 222 220 220 223 222 219 216 218 225 227 225 227 227 225 227 227 226 233 235 230 232 233 230 232 239 241 240 241 245 248 248 249 247 252 264 272 273 271 273 278 285 285 286 292 298 298 296 296 296 292 291 297 303 306 307 306 304 303 304 306 306 307 308 309 311 313 314 314 311 307 303 299 295 293 290 288 286 284 282 281 280 278 276
218 220 224 223 220 221 220 218 217 214 219 226 226 226 230 228 228 229 229 233 236 234 234 235 234 235 240 242 242 243 248 251 249 246 245 246 252 260 265 267 266 267 273 278 283 288 293 296 297 298 298 296 295 299 301 302 304 305 305 306 306 306 307 308 309 311 313 315 317 317 315 311 306 301 297 294 292 290 289 287 286 285 283 281 279
221 222 224 224 222 221 218 215 218 218 220 227 228 226 230 232 230 230 231 235 238 238 239 241 243 242 242 243 244 244 246 252 254 251 246 243 244 246 249 254 256 258 263 268 275 283 288 293 296 299 301 300 297 297 297 298 301 303 306 309 309 309 308 305 304 305 308 312 314 315 315 314 309 306 302 299 297 294 291 289 289 289 287 284 282
219 224 224 224 224 223 219 216 220 223 225 229 231 229 231 234 233 231 232 235 239 241 243 247 249 248 244 243 244 243 242 246 251 254 249 245 245 246 248 254 258 263 266 268 275 284 289 293 297 301 304 305 304 306 306 306 306 308 309 310 310 309 307 302 300 302 304 308 312 314 315 314 312 312 310 305 302 301 297 294 294 295 293 289 287
213 221 224 223 223 223 221 220 223 227 228 231 233 232 233 235 236 236 235 236 241 244 247 249 250 249 247 246 245 242 239 240 247 252 250 245 246 251 254 260 267 275 281 284 286 290 291 294 298 302 303 306 309 312 311 309 309 310 311 311 311 310 307 301 300 304 305 307 311 311 310 308 308 311 313 310 308 308 309 308 306 304 302 298 294
207 215 223 223 223 224 224 223 225 229 231 232 234 234 233 234 238 240 238 238 242 245 247 249 250 250 251 251 248 244 240 239 242 246 248 248 250 255 260 266 272 277 283 289 292 293 294 297 301 302 303 305 307 308 309 307 307 308 309 308 309 313 314 310 306 306 305 305 308 308 306 303 305 311 315 316 316 317 317 317 316 312 308 304 300
206 209 218 223 224 226 226 225 227 230 232 233 234 235 234 232 235 240 240 237 240 245 247 248 250 251 251 252 251 248 245 244 244 245 247 249 253 259 264 272 279 281 283 286 287 288 292 294 296 296 296 298 299 300 304 306 307 308 306 303 304 308 308 307 307 308 308 308 311 313 311 307 307 312 316 318 320 323 322 321 321 319 316 313 308
208 207 212 220 224 226 227 227 228 230 233 234 234 235 235 232 232 238 241 239 237 242 245 247 248 247 244 245 247 247 248 250 251 250 248 248 251 258 264 270 277 279 281 281 278 279 284 286 287 289 291 295 297 298 302 305 304 302 299 299 301 302 302 304 307 309 309 310 313 315 313 309 309 310 313 316 319 322 324 325 324 322 322 321 317
210 209 209 213 219 224 227 228 228 230 233 234 235 235 236 234 232 235 241 243 240 240 242 245 247 246 244 241 240 242 247 253 255 254 251 251 254 259 266 273 277 278 279 280 278 279 282 285 287 290 292 294 294 293 296 298 296 296 300 301 299 299 302 303 305 307 308 309 310 309 309 313 314 312 312 317 320 323 325 325 324 323 322 323 321
211 210 209 209 213 220 226 228 229 229 232 235 237 237 237 237 236 235 238 244 245 242 242 243 244 245 245 244 243 242 243 248 256 258 255 257 262 266 270 273 276 276 276 277 278 279 281 283 286 288 286 283 284 285 286 289 292 296 300 299 297 300 303 303 303 307 310 311 310 308 310 314 316 316 319 323 326 327 325 324 324 323 323 323 323
213 211 209 209 209 214 222 227 229 231 233 235 238 239 239 238 239 237 237 242 246 247 246 247 247 246 245 245 246 246 245 248 255 260 260 261 265 269 272 274 274 273 272 272 273 274 275 276 279 280 279 279 281 282 281 285 290 292 292 294 298 303 305 304 304 308 310 312 310 308 311 315 318 320 324 328 328 326 325 327 329 327 325 324 323
216 214 211 211 209 210 215 222 227 231 234 236 239 241 241 239 239 239 239 240 244 247 249 250 251 251 249 247 245 246 248 253 258 262 263 264 266 269 273 274 273 272 271 271 271 271 272 273 275 277 279 281 280 279 281 284 285 285 287 295 302 304 303 301 302 305 306 307 309 310 313 320 325 325 326 330 331 328 324 324 328 330 329 325 320
218 218 217 216 214 212 212 215 221 227 231 236 240 241 241 241 239 238 238 239 241 244 248 251 253 254 254 253 251 249 250 255 261 264 267 269 271 273 275 275 274 273 273 274 275 275 275 274 275 277 281 282 281 281 284 284 282 284 290 299 303 301 299 299 300 302 304 309 315 316 317 325 330 324 320 324 325 322 319 318 321 324 325 323 319
220 222 221 220 220 219 218 215 217 222 226 234 241 242 240 240 240 238 236 237 239 240 244 249 252 254 256 256 256 256 255 257 261 265 269 272 275 277 277 276 276 275 275 275 274 275 274 274 275 277 280 282 282 284 286 284 284 289 293 298 297 294 296 300 302 306 311 319 324 321 318 324 327 316 310 313 314 315 317 317 317 319 321 322 319
221 225 224 223 224 226 225 221 219 222 225 230 239 243 241 238 238 238 236 235 236 238 241 246 249 252 255 257 258 259 260 260 262 265 268 271 273 276 278 279 279 279 280 279 278 277 276 275 275 278 281 283 285 287 287 284 286 291 292 292 290 291 297 302 307 312 318 322 324 319 312 317 322 315 311 313 314 315 317 319 322 323 322 318 314
220 226 227 226 227 229 230 228 225 226 227 229 236 243 244 240 236 235 235 234 236 238 242 245 248 251 254 256 258 260 261 262 263 265 267 269 270 272 274 275 276 277 277 279 282 284 282 281 283 285 287 288 288 290 291 290 293 297 296 294 294 298 303 306 309 314 314 315 322 320 310 312 319 317 315 316 314 315 320 325 326 322 315 312 309
215 223 228 229 229 231 233 233 231 231 231 233 237 241 244 243 239 235 235 235 236 238 241 245 248 251 253 255 257 259 261 263 264 265 266 267 267 268 268 268 267 266 265 267 274 281 284 288 292 292 291 292 292 294 294 295 298 301 301 299 302 306 307 307 308 310 312 319 329 326 309 311 317 317 317 318 317 318 323 328 328 322 319 317 314
214 218 224 228 230 233 236 237 238 237 236 238 242 244 245 246 244 240 239 237 237 239 240 243 246 249 253 256 258 259 260 262 263 265 266 266 266 267 268 267 266 265 266 266 267 271 279 283 285 286 287 288 289 289 287 289 297 301 298 300 307 311 307 305 307 311 317 327 330 316 307 311 315 316 316 318 320 322 325 327 329 327 322 318 316
218 215 219 225 229 234 237 239 241 242 241 241 244 246 247 248 247 246 244 244 243 242 242 243 246 248 251 254 257 258 260 261 262 263 264 265 266 267 268 268 266 265 265 265 260 259 266 272 275 277 278 278 279 280 282 289 297 297 295 301 310 310 304 303 309 313 318 322 316 307 308 312 314 315 318 319 320 324 328 329 327 324 322 322 322